Regional Weather Roundup
Issued by NWS Charleston, SC

Current Version | Previous Version | Graphics & Text | Print | Product List | Glossary On
Versions: 1 2 3 4 5 6 7 8 9 10 11 12 13 14 15 16 17 18 19 20 21 22 23 24 25 26 27 28 29 30 31 32 33 34 35 36 37 38 39 40 41 42 43 44 45 46 47 48 49 50
000 ASUS42 KCHS 310728 RWRCHS REGIONAL WEATHER ROUNDUP NATIONAL WEATHER SERVICE CHARLESTON SC 300 AM EDT TUE MAY 31 2016 NOTE: "FAIR" INDICATES FEW OR NO CLOUDS BELOW 12,000 FEET WITH NO SIGNIFICANT WEATHER AND/OR OBSTRUCTIONS TO VISIBILITY. NOT ALL STATIONS ARE QUALITY CONTROLLED. USE DATA WITH CAUTION... ESPECIALLY DEWPOINT OBSERVATIONS. SCZ027-030-031-034>040-042>050-310800- ...SOUTHEAST SOUTH CAROLINA... CITY SKY/WX TMP DP RH WIND PRES REMARKS N CHARLESTON CLOUDY 71 69 93 NW6 29.87F WATERFRONT PRK N/A 71 71 100 VRB3 29.86F MOUNT PLEASANT CLOUDY 72 72 100 NW6 29.87S FOG JOHNS ISLAND CLOUDY 73 72 94 W5 29.87F PINOPOLIS N/A 75 72 88 NW5 29.80F MONCKS CORNER CLOUDY 68 66 94 CALM 29.88F SUMMERVILLE CLOUDY 70 70 100 CALM 29.89F BEAUFORT MCAS MOCLDY 72 71 97 CALM 29.88F BEAUFORT ARPT CLOUDY 72 70 94 CALM 29.87F HILTON HEAD IS CLEAR 73 73 100 CALM 29.88F FOG WALTERBORO CLOUDY 72 72 100 CALM 29.89F ALLENDALE CLOUDY 72 70 94 CALM 29.89F FOG ...SOUTHERN MIDLANDS AND PEE DEE... CITY SKY/WX TMP DP RH WIND PRES REMARKS GEORGETOWN FAIR 68 68 100 CALM 29.87S KINGSTREE FOG 68 68 100 NW5 29.89S VSB 1/2 ORANGEBURG PTCLDY 68 67 96 CALM 29.89F FOG BARNWELL FAIR 72 72 100 CALM 29.91F AIKEN FAIR 66 64 94 CALM 29.95S MANNING CLOUDY 70 70 100 CALM 29.89F FOG COLUMBIA CLOUDY 73 69 87 NE7 29.90F SUMTER CLOUDY 71 69 94 N6 29.89S FLORENCE CLOUDY 72 70 93 N5 29.90S MYRTLE BEACH CLEAR 70 63 78 NW3 29.88S N MYRTLE BEACH CLEAR 72 69 90 CALM 29.85F $$ GAZ063-065-086>088-099>101-113>116-118-119-134>141-150-310800- ...SOUTHEAST GEORGIA... CITY SKY/WX TMP DP RH WIND PRES REMARKS SAVANNAH ARPT CLEAR 71 68 90 CALM 29.89F HUNTER AAF CLEAR 71 71 100 CALM 29.86F FORT STEWART CLEAR 70 67 92 CALM 29.86F STATESBORO CLEAR 68 68 100 CALM 29.89F SYLVANIA MOSUNNY 71 69 94 CALM 29.89F CLAXTON PTSUNNY 68 68 100 CALM 29.89S ...CSRA...CENTRAL AND FAR SOUTHEAST GEORGIA... CITY SKY/WX TMP DP RH WIND PRES REMARKS THOMSON CLEAR 68 68 100 CALM 29.96S AUGUSTA-BUSH FOG 66 65 96 CALM 29.90F VSB 1/2 AUGUSTA-DANIEL CLEAR 74 68 81 CALM 29.92F SWAINSBORO CLOUDY 70 66 88 CALM 29.91S VIDALIA MOCLDY 72 64 78 CALM 29.90R EASTMAN FAIR N/A N/A N/A CALM 29.92S HAZLEHURST PTSUNNY 76 68 76 CALM 29.88S ALMA PTCLDY 71 66 84 SW3 29.89F WAYCROSS CLEAR 70 68 92 CALM 29.89F JESUP FAIR 64 63 94 CALM 29.89F BAXLEY FAIR 72 68 88 CALM 29.88F BRUNSWICK CLEAR 77 70 78 SW7 29.89F SAINT SIMONS CLEAR 74 67 78 SW9 29.88F $$ SCZ027-028-034-036>038-045-046-048>050-GAZ119-141-310800- ...LAKE AND SUPPLEMENTAL COASTAL OBSERVATIONS... STATION/POSITION TIME TEMP WIND PRES WAVE SWELL AIR SEA DIR/SP/G HT/PER HT/PER/DIR (UTC) (F) (DEG/KT/KT) (MB) (FT/S) (FT/S/D) WINYAH BAY 0600 74 80/ 5 1010.0F LAKE MURRAY 0600 72 CALM 1012.9S ACE BASIN NERRS 0600 71 CALM 1012.0F FORT PULASKI 0700 74 76 320/ 3/ 3 1012.0F SAPELO ISLAND 0600 76 230/ 7 1012.0S $$ ANZ835-935-AMZ111-154-330-350-352-354-370-450-454-472-310800- ...C-MAN AND BUOY OBSERVATIONS... STATION/POSITION TIME TEMP WIND PRES WAVE SWELL AIR SEA DIR/SP/G HT/PER HT/PER/DIR (UTC) (F) (DEG/KT/KT) (MB) (FT/S) (FT/S/D) BUOY 41004 0650 74 77 240/ 23/ 27 1009.6F 4/ 8 3/ 8 BUOY 41008 0650 78 77 230/ 14/ 17 1011.2F 3/ 8 2/ 80/ 8 FOLLY BEACH CMAN 0700 71 270/ 5/ 6 1011.7F CAPERS NEARSHORE 0708 72 76 300/ 12/ 14 1011.6F FRIPP NEARSHORE 0708 74 76 260/ 2/ 4 1010.9F STATION/POSITION TIME TEMP WIND PRES WAVE SWELL AIR SEA DIR/SP/G HT/PER HT/PER/DIR (UTC) (F) (DEG/KT/KT) (MB) (FT/S) (FT/S/D) 5E ST. MARYS GA 0701 78 N/A 3/ 8 FRYING PAN BUOY 0700 140/ 6/ 8 1010.6F BUOY 41025 0650 78 80 210/ 14/ 17 1012.3F 5/ 8 5/170/ 8 CAPE LOOKOUT NC 0700 75 140/ 5/ 5 1012.1R BUOY 41002 0650 76 76 150/ 12/ 16 1014.5F 5/ 8 3/100/ 8 BUOY 41010 0620 79 80 190/ 14/ 16 1013.7F ST AUGUSTINE FL 0700 73 80 250/ 8/ 10 1013.6F $$

USA.gov is the U.S. government's official web portal to all federal, state and local government web resources and services.